This is the latest recevied weather packets stored in our database for station/object K2ATL. If no packets are shown the sender has not sent any weather packets the latest 10 day(s).
| Time | Temp. | Humidity | Pressure | Rain* | Wind** | Luminosity | Snow |
|---|---|---|---|---|---|---|---|
| 1777943353 | 17.78° C | 55% | 1099.7 hPa | 0 mm | - | 0 W/m² | - |
| 1777943048 | 17.78° C | 55% | 1099.7 hPa | 0 mm | - | 0 W/m² | - |
| 1777942744 | 17.78° C | 55% | 1099.5 hPa | 0 mm | - | 0 W/m² | - |
| 1777942441 | 18.33° C | 55% | 1099.5 hPa | 0 mm | - | 0 W/m² | - |
| 1777942139 | 18.33° C | 54% | 1099.6 hPa | 0 mm | - | 0 W/m² | - |
| 1777941835 | 18.33° C | 54% | 1099.6 hPa | 0 mm | - | 0 W/m² | - |
| 1777941533 | 18.89° C | 52% | 1099.6 hPa | 0 mm | - | 0 W/m² | - |
| 1777941230 | 18.89° C | 52% | 1099.5 hPa | 0 mm | - | 1 W/m² | - |
| 1777940925 | 18.89° C | 52% | 1099.5 hPa | 0 mm | - | 2 W/m² | - |
| 1777940622 | 18.89° C | 51% | 1099.4 hPa | 0 mm | - | 4 W/m² | - |
| 1777940321 | 19.44° C | 51% | 1099.4 hPa | 0 mm | - | 5 W/m² | - |
| 1777940018 | 20° C | 49% | 1099.4 hPa | 0 mm | - | 9 W/m² | - |
| 1777939715 | 20° C | 49% | 1099.3 hPa | 0 mm | - | 14 W/m² | - |
| 1777939413 | 20° C | 49% | 1099.5 hPa | 0 mm | - | 17 W/m² | - |
| 1777939109 | 20° C | 48% | 1099.4 hPa | 0 mm | - | 20 W/m² | - |
| 1777938806 | 20° C | 49% | 1099.5 hPa | 0 mm | - | 21 W/m² | - |
| 1777938503 | 20.56° C | 49% | 1099.6 hPa | 0 mm | - | 24 W/m² | - |
| 1777938201 | 20.56° C | 48% | 1099.4 hPa | 0 mm | - | 28 W/m² | - |
| 1777937897 | 21.11° C | 47% | 1099.5 hPa | 0 mm | - | 36 W/m² | - |
| 1777937593 | 21.67° C | 47% | 1099.5 hPa | 0 mm | - | 41 W/m² | - |
| 1777937289 | 21.11° C | 46% | 1099.5 hPa | 0 mm | - | 53 W/m² | - |
| 1777936987 | 21.11° C | 49% | 1099.5 hPa | 0 mm | - | 61 W/m² | - |
| 1777936684 | 21.11° C | 49% | 1099.6 hPa | 0 mm | - | 68 W/m² | - |
| 1777936380 | 21.11° C | 48% | 1099.6 hPa | 0 mm | - | 85 W/m² | - |
| 1777936076 | 20.56° C | 49% | 1099.5 hPa | 0 mm | - | 74 W/m² | - |
* Rain latest hour (hover to see other rain measurements)
** Current wind speed in m/s (hover to see current wind gust speed)